User: anonymous   Login
Location: Observatoire
(46.1952°N, 5.3391°E)
Time: 15:00:54
(UTC+02:00)
Language:

ZACube-1 - Orbit

View from above orbital plane
View from above orbital plane
View from above satellite
View from above satellite

Ground track
Ground track

The orbit data is extracted from the following two-line orbital elements,

1 39417U 13066B   24104.12934005  .00005835  00000-0  62218-3 0  9998
2 39417  97.7293  61.6250 0052287  17.8009 342.5024 14.88227029561906
Epoch (UTC): 13 April 2024 03:06:14
Eccentricity: 0.0052287
inclination: 97.7293°
perigee height: 567 km
apogee height: 640 km
right ascension of ascending node: 61.6250°
argument of perigee: 17.8009°
revolutions per day: 14.88227029
mean anomaly at epoch: 342.5024°
orbit number at epoch: 56190

The dashed part of the orbit path shows where the satellite is in the earth's shadow,  

DLR